Location: Kampong Paya Jaras Dalam
(3.1833°N, 101.5500°E)
Time: 05:53:46
(UTC+00:00)

Cosmos 2297 - Pass Details

Date: 15 May 2026
Orbit: 834 x 858 km, 71.0° (Epoch: 7 June)

Event Time Altitude Azimuth Distance (km) Brightness Sun altitude
Rises 22:36:25 0° 190° (S) 3,397 6.5 -6.9°
Reaches altitude 10° 22:38:53 10° 187° (S) 2,465 5.9 -6.3°
Maximum altitude 22:44:30 67° 105° (ESE) 915 4.2 -5.0°
Drops below altitude 10° 22:50:08 10° 23° (NNE) 2,473 6.8 -3.7°
Sets 22:52:36 0° 21° (NNE) 3,410 7.5 -3.1°
